Location: Monrovia
(34.7865°N, 86.7139°W)
Time: 22:07:17
(UTC+00:00)

Intercosmos 25 Rocket - Pass Details

Date: 14 July 2020
Orbit: 434 x 2985 km, 82.6° (Epoch: 08 August)

Event Time Altitude Azimuth Distance (km) Brightness Sun altitude
Rises 09:52:50 0° 346° (NNW) 2,832 7.3 -9.9°
Reaches altitude 10° 09:54:39 10° 342° (NNW) 2,092 6.5 -9.6°
Maximum altitude 09:59:06 59° 264° (W) 1,025 4.4 -8.8°
Drops below altitude 10° 10:06:25 10° 187° (S) 3,387 6.9 -7.6°
Sets 10:10:04 0° 184° (S) 4,777 7.7 -7.0°
